Location: Allens Landing
(37.8284°N, 89.7284°W)
Time: 12:53:11
(UTC+00:00)

Vanguard 2 - Pass Details

Date: 23 December 2025
Orbit: 552 x 2898 km, 32.9° (Epoch: 13 January)

Event Time Altitude Azimuth Distance (km) Brightness Sun altitude
Rises 02:47:32 0° 206° (SSW) 6,263 12.4 -47.1°
Reaches altitude 10° 02:53:38 10° 192° (SSW) 4,865 11.6 -48.3°
Enters shadow 02:55:59 14° 185° (S) 4,369 11.3 -48.8°
